[[{"header":{"parameterUnit":"m.s-1","parameterCategory":1,"la1":30.2991,"la2":30.254,"lo1":-89.0895,"lo2":-89.0444,"dy":0.0017,"dx":0.0017,"nx":28,"ny":28,"refTime":"2024-11-27T09:00:00:Z","depth":0,"parameterNumber":2,"parameterNumberName":"U-component_of_WINDS"},"data":[0,0,0,0,0,0,0,0,0,0,0,0,0,0,0,0,0,0,0,0,0,0,0,0,0,0,0,0,0,0,0,0,0,0,0,0,0,0,0,0,0,0,0,0,0,0,0,0,0,0,0,0,0,0,0,0,0,0,-1.1081,-1.108,0,-1.1077,-1.1077,-1.1076,-1.103,-1.1029,-1.1028,-1.1027,-1.1025,-1.1026,-1.1027,0,0,0,0,0,0,0,0,0,0,0,0,0,-1.105,-1.1051,-1.1081,-1.108,-1.108,-1.1077,-1.1077,-1.1076,-1.103,-1.1029,-1.1028,-1.1026,-1.1025,-1.1026,-1.1028,0,0,0,0,0,0,0,0,0,0,0,0,0,-1.1056,-1.1051,-1.1081,-1.1057,-1.1055,-1.1077,-1.1077,-1.1076,-1.1031,-1.1029,-1.1027,-1.1026,-1.1025,-1.1026,-1.1028,-1.1073,0,0,-1.1033,-1.1033,0,0,0,0,0,0,0,0,-1.1056,-1.1058,-1.106,-1.1059,-1.1056,-1.1052,-1.1065,-1.1075,-1.1031,-1.104,-1.1027,-1.1025,-1.1036,-1.1036,-1.104,-1.1073,-1.1073,-1.1033,-1.1034,-1.1034,-1.1035,0,0,0,0,0,0,0,-1.1056,-1.1058,-1.1079,-1.1061,-1.1058,-1.1047,-1.1046,-1.1067,-1.1048,-1.1039,-1.1036,-1.1036,-1.1034,-1.1038,-1.1039,-1.1073,-1.1033,-1.1034,-1.1035,-1.1036,-1.1142,-1.1144,0,0,0,0,0,0,-1.1058,-1.1057,-1.1079,-1.1079,-1.1052,-1.1049,-1.1048,-1.1055,-1.1048,-1.1045,-1.1037,-1.1034,-1.1036,-1.1037,-1.1039,-1.1091,-1.1034,-1.1036,-1.1037,-1.114,-1.1142,-1.1144,0,0,0,0,0,0,-1.1058,-1.1061,-1.1079,-1.1067,-1.1069,-1.1051,-1.106,-1.1056,-1.106,-1.1046,-1.1043,-1.1044,-1.1035,-1.1037,-1.1064,-1.109,-1.1037,-1.1038,-1.1138,-1.1141,-1.1143,-1.1196,0,0,0,0,0,0,-1.1057,-1.1061,-1.1077,-1.1068,-1.107,-1.1105,-1.1062,-1.1057,-1.1062,-1.1058,-1.1052,-1.1049,-1.1034,-1.1062,-1.1066,-1.1092,-1.1039,-1.1136,-1.1139,-1.1143,-1.1192,-1.12,-1.1207,0,0,0,0,0,-1.1056,-1.1093,-1.1078,-1.1081,-1.109,-1.1106,-1.1107,-1.1088,-1.1065,-1.1081,-1.1072,-1.105,-1.1087,-1.1066,-1.1069,-1.1096,-1.1134,-1.1138,-1.1142,-1.1188,-1.1199,-1.1207,0,0,0,0,0,0,-1.1107,-1.1091,-1.1075,-1.111,-1.1109,-1.1098,-1.1119,-1.1099,-1.1106,-1.1101,-1.1077,-1.1077,-1.1108,-1.1104,-1.1081,-1.1139,-1.1106,-1.1111,-1.114,-1.115,-1.1157,-1.1158,-1.1041,0,0,0,0,0,-1.1122,-1.1136,-1.1122,-1.1154,-1.1154,-1.1137,-1.1143,-1.1128,-1.1127,-1.1127,-1.112,-1.1121,-1.1132,-1.1141,-1.1151,-1.1191,-1.1189,-1.1211,-1.1218,-1.1225,-1.123,-1.1251,-1.126,-1.1158,-1.1158,-1.1158,0,0,-1.1154,-1.1147,-1.1158,-1.1164,-1.1162,-1.1177,-1.1137,-1.1155,-1.1166,-1.113,-1.1155,-1.115,-1.1149,-1.1183,-1.1198,-1.1181,-1.1258,-1.123,-1.1236,-1.1237,-1.1256,-1.1266,-1.1274,-1.1161,-1.1161,-1.116,0,0,-1.122,-1.1216,-1.1242,-1.124,-1.1237,-1.1225,-1.1231,-1.1223,-1.1218,-1.1242,-1.1215,-1.1228,-1.1249,-1.1249,-1.1252,-1.1317,-1.1296,-1.1321,-1.1362,-1.1382,-1.1391,-1.1398,-1.1421,-1.143,-1.1326,-1.1326,-1.1326,0,-1.1261,-1.1282,-1.1258,-1.1278,-1.1281,-1.1247,-1.1274,-1.1274,-1.1275,-1.1278,-1.1259,-1.1284,-1.1281,-1.1315,-1.133,-1.1334,-1.134,-1.1322,-1.1391,-1.1398,-1.1404,-1.1426,-1.1435,-1.1329,-1.1329,-1.1328,-1.1328,0,-1.1332,-1.1347,-1.1368,-1.1368,-1.1374,-1.1397,-1.1378,-1.1387,-1.1371,-1.1361,-1.1386,-1.1381,-1.1389,-1.1396,-1.1381,-1.1427,-1.1417,-1.1395,-1.1362,-1.1417,-1.1438,-1.1446,-1.1333,-1.1332,-1.1331,-1.1331,0,0,-1.1431,-1.1417,-1.1425,-1.1425,-1.1418,-1.143,-1.1451,-1.1458,-1.1466,-1.1467,-1.1485,-1.1503,-1.1482,-1.1485,-1.147,-1.1488,-1.1539,-1.1463,-1.1463,-1.1478,-1.159,-1.1607,-1.1618,-1.1525,-1.1526,-1.1528,-1.159,0,-1.1495,-1.153,-1.1509,-1.1547,-1.1561,-1.1528,-1.1547,-1.1545,-1.1536,-1.1547,-1.1537,-1.155,-1.1521,-1.1523,-1.1539,-1.153,-1.1562,-1.1525,-1.1542,-1.1543,-1.1544,-1.1628,-1.1647,-1.1706,-1.1598,-1.1599,-1.16,0,-1.1574,-1.1578,-1.1617,-1.1607,-1.1612,-1.1629,-1.1633,-1.1644,-1.1641,-1.1633,-1.1636,-1.1616,-1.1637,-1.1603,-1.1631,-1.1607,-1.1612,-1.1609,-1.1611,-1.1612,-1.1576,-1.1633,-1.1724,-1.1734,-1.1613,-1.1612,-1.1611,0,-1.1644,-1.1658,-1.1683,-1.1684,-1.1673,-1.1685,-1.1681,-1.1677,-1.1682,-1.1686,-1.1689,-1.1696,-1.17,-1.1705,-1.1688,-1.1665,-1.1718,-1.1684,-1.1713,-1.1714,-1.1727,-1.1726,-1.1822,-1.1729,-1.1729,-1.1729,-1.1729,0,-1.1718,-1.1743,-1.1714,-1.173,-1.1757,-1.1733,-1.1761,-1.1754,-1.175,-1.1764,-1.1736,-1.175,-1.1725,-1.1737,-1.1723,-1.1749,-1.175,-1.1745,-1.1741,-1.1748,-1.1749,-1.1752,-1.1748,-1.1731,-1.1731,-1.173,-1.173,0,-1.18,-1.1782,-1.1807,-1.1794,-1.1791,-1.1812,-1.1801,-1.1815,-1.1803,-1.1821,-1.1824,-1.1806,-1.1818,-1.1801,-1.1811,-1.1802,-1.1837,-1.1827,-1.1838,-1.1835,-1.1866,-1.1863,-1.1967,-1.198,-1.1879,-1.188,-1.1881,0,-1.1849,-1.1868,-1.1856,-1.1862,-1.186,-1.1871,-1.1876,-1.1852,-1.1859,-1.1856,-1.1871,-1.188,-1.1886,-1.1907,-1.1896,-1.1904,-1.1894,-1.1929,-1.1895,-1.1901,-1.1895,-1.1894,-1.1896,-1.1937,-1.1938,-1.1939,-1.194,0,-1.1938,-1.1927,-1.1935,-1.1939,-1.1945,-1.1947,-1.1948,-1.1955,-1.193,-1.1938,-1.195,-1.1954,-1.1964,-1.1974,-1.1979,-1.1975,-1.1954,-1.1951,-1.1958,-1.1965,-1.1971,-1.1969,-1.1858,-1.1949,-1.1948,-1.1947,-1.1947,-1.1946,-1.2006,-1.202,-1.2014,-1.2023,-1.202,-1.2021,-1.2033,-1.2022,-1.2031,-1.2037,-1.2022,-1.2037,-1.2033,-1.2037,-1.2035,-1.2047,-1.2031,-1.2042,-1.2045,-1.2048,-1.2053,-1.1969,-1.2048,-1.2047,-1.2047,-1.2047,-1.2047,0,-1.2094,-1.2087,-1.2096,-1.2096,-1.2103,-1.208,-1.2079,-1.2087,-1.21,-1.2098,-1.2104,-1.2117,-1.2126,-1.2114,-1.2121,-1.2133,-1.2123,-1.2136,-1.2135,-1.2135,-1.2066,-1.2059,-1.2143,-1.2143,-1.2143,-1.2143,-1.2143,-1.2143,-1.214,-1.2164,-1.2152,-1.2175,-1.2168,-1.2182,-1.2183,-1.2183,-1.2181,-1.2196,-1.2203,-1.2195,-1.2189,-1.2195,-1.2203,-1.2199,-1.2203,-1.2219,-1.2213,-1.2149,-1.214,-1.2131,-1.2124,-1.222,-1.2221,-1.228,-1.2281,-1.2281]},{"header":{"parameterUnit":"m.s-1","parameterCategory":1,"la1":30.2991,"la2":30.254,"lo1":-89.0895,"lo2":-89.0444,"dy":0.0017,"dx":0.0017,"nx":28,"ny":28,"refTime":"2024-11-27T09:00:00:Z","depth":0,"parameterNumber":3,"parameterNumberName":"V-component_of_WINDS"},"data":[0,0,0,0,0,0,0,0,0,0,0,0,0,0,0,0,0,0,0,0,0,0,0,0,0,0,0,0,0,0,0,0,0,0,0,0,0,0,0,0,0,0,0,0,0,0,0,0,0,0,0,0,0,0,0,0,0,0,-0.9241,-0.9241,0,-0.9224,-0.9224,-0.9223,-0.9212,-0.9212,-0.9212,-0.9212,-0.9193,-0.9193,-0.9192,0,0,0,0,0,0,0,0,0,0,0,0,0,-0.9263,-0.9262,-0.9241,-0.9241,-0.9241,-0.9224,-0.9224,-0.9223,-0.9212,-0.9212,-0.9212,-0.9211,-0.9193,-0.9193,-0.9192,0,0,0,0,0,0,0,0,0,0,0,0,0,-0.925,-0.9262,-0.9241,-0.9233,-0.9232,-0.9224,-0.9224,-0.9223,-0.9212,-0.9212,-0.9212,-0.9211,-0.9193,-0.9193,-0.9192,-0.9191,0,0,-0.919,-0.919,0,0,0,0,0,0,0,0,-0.9251,-0.9249,-0.9234,-0.9234,-0.9232,-0.922,-0.9224,-0.9212,-0.9212,-0.9219,-0.9212,-0.9211,-0.9202,-0.9201,-0.9198,-0.919,-0.9189,-0.919,-0.919,-0.919,-0.9189,0,0,0,0,0,0,0,-0.9252,-0.925,-0.9234,-0.9234,-0.9233,-0.923,-0.9228,-0.9222,-0.9212,-0.9219,-0.9218,-0.9216,-0.9201,-0.9198,-0.9197,-0.9189,-0.919,-0.919,-0.9189,-0.9189,-0.9177,-0.9177,0,0,0,0,0,0,-0.9254,-0.9251,-0.9235,-0.9234,-0.9242,-0.9229,-0.9227,-0.9224,-0.9212,-0.921,-0.9216,-0.9216,-0.9199,-0.9198,-0.9196,-0.9193,-0.919,-0.9189,-0.9189,-0.9177,-0.9177,-0.9177,0,0,0,0,0,0,-0.9255,-0.9253,-0.9236,-0.9242,-0.924,-0.9229,-0.9226,-0.9224,-0.9221,-0.921,-0.9208,-0.9215,-0.9199,-0.9197,-0.9192,-0.9192,-0.9189,-0.9188,-0.9177,-0.9177,-0.9177,-0.9186,0,0,0,0,0,0,-0.9255,-0.9253,-0.9253,-0.9242,-0.9239,-0.9232,-0.9226,-0.9223,-0.922,-0.9219,-0.9208,-0.9206,-0.9199,-0.9193,-0.9191,-0.9191,-0.9188,-0.9177,-0.9177,-0.9177,-0.9186,-0.9187,-0.9188,0,0,0,0,0,-0.9256,-0.9256,-0.9253,-0.9251,-0.9239,-0.9232,-0.923,-0.9222,-0.922,-0.9219,-0.9212,-0.9206,-0.9192,-0.9192,-0.919,-0.919,-0.9177,-0.9177,-0.9177,-0.9186,-0.9187,-0.9187,0,0,0,0,0,0,-0.9267,-0.9255,-0.9251,-0.9248,-0.9241,-0.923,-0.9229,-0.9224,-0.9217,-0.9217,-0.9207,-0.9205,-0.92,-0.9195,-0.9195,-0.9187,-0.9184,-0.9184,-0.9191,-0.9192,-0.9193,-0.9194,-0.9187,0,0,0,0,0,-0.927,-0.9265,-0.9254,-0.9253,-0.9249,-0.924,-0.9237,-0.9231,-0.9223,-0.922,-0.9213,-0.9205,-0.9199,-0.9195,-0.9189,-0.9185,-0.9182,-0.9184,-0.9185,-0.9185,-0.9185,-0.9181,-0.9182,-0.9178,-0.9178,-0.9178,0,0,-0.9274,-0.9267,-0.9265,-0.9255,-0.9249,-0.9244,-0.9238,-0.9233,-0.9229,-0.922,-0.9214,-0.9208,-0.9199,-0.9194,-0.9191,-0.9189,-0.9185,-0.9185,-0.9186,-0.9185,-0.9181,-0.9182,-0.9182,-0.9178,-0.9178,-0.9178,0,0,-0.9279,-0.9274,-0.9271,-0.9265,-0.9256,-0.925,-0.9249,-0.9238,-0.9234,-0.9228,-0.922,-0.9215,-0.9205,-0.9199,-0.9194,-0.9195,-0.919,-0.9194,-0.9197,-0.9194,-0.9194,-0.9194,-0.9194,-0.9194,-0.9193,-0.9193,-0.9193,0,-0.9286,-0.9279,-0.9271,-0.9266,-0.9262,-0.9253,-0.9249,-0.9244,-0.9233,-0.923,-0.9228,-0.9214,-0.9207,-0.92,-0.92,-0.9197,-0.9195,-0.9195,-0.9195,-0.9195,-0.9195,-0.9194,-0.9194,-0.9194,-0.9194,-0.9194,-0.9194,0,-0.9287,-0.9282,-0.9281,-0.9271,-0.9266,-0.9262,-0.9252,-0.9249,-0.9243,-0.9236,-0.9229,-0.9221,-0.9212,-0.921,-0.9205,-0.9202,-0.9201,-0.9197,-0.9193,-0.9196,-0.9195,-0.9195,-0.9195,-0.9194,-0.9194,-0.9194,0,0,-0.93,-0.9284,-0.9284,-0.9278,-0.9267,-0.9263,-0.9258,-0.925,-0.9246,-0.9239,-0.9234,-0.9225,-0.9221,-0.9215,-0.9209,-0.9206,-0.9206,-0.9202,-0.9202,-0.9203,-0.9201,-0.9204,-0.9204,-0.9203,-0.9202,-0.9202,-0.9201,0,-0.9303,-0.9294,-0.9286,-0.928,-0.9275,-0.9266,-0.9261,-0.9253,-0.9247,-0.9241,-0.9233,-0.9226,-0.9222,-0.9219,-0.9215,-0.9207,-0.9206,-0.9207,-0.9197,-0.9197,-0.9199,-0.9203,-0.9206,-0.9206,-0.9201,-0.9201,-0.9201,0,-0.9306,-0.9298,-0.9292,-0.928,-0.9278,-0.9274,-0.9265,-0.926,-0.925,-0.9245,-0.9239,-0.9232,-0.9225,-0.9222,-0.9212,-0.9214,-0.9209,-0.9204,-0.9204,-0.9202,-0.9199,-0.9201,-0.9206,-0.9206,-0.9201,-0.9201,-0.9201,0,-0.9314,-0.9303,-0.9298,-0.9293,-0.928,-0.9277,-0.9271,-0.9262,-0.9257,-0.9249,-0.9245,-0.9236,-0.9231,-0.9224,-0.9214,-0.9213,-0.9205,-0.9202,-0.92,-0.9201,-0.9199,-0.9199,-0.9202,-0.9197,-0.9197,-0.9197,-0.9197,0,-0.9319,-0.9315,-0.9301,-0.9298,-0.9293,-0.9283,-0.9278,-0.9271,-0.9263,-0.9257,-0.9248,-0.9243,-0.9231,-0.9224,-0.9217,-0.9209,-0.9207,-0.9202,-0.92,-0.9203,-0.9203,-0.92,-0.9199,-0.9197,-0.9197,-0.9197,-0.9197,0,-0.9328,-0.9319,-0.9312,-0.9299,-0.9296,-0.9293,-0.9282,-0.9277,-0.927,-0.9263,-0.926,-0.9248,-0.924,-0.9229,-0.9217,-0.9212,-0.9205,-0.9202,-0.9208,-0.9207,-0.9206,-0.9206,-0.9206,-0.9206,-0.9201,-0.9201,-0.9201,0,-0.9331,-0.9328,-0.9315,-0.931,-0.9305,-0.9298,-0.9293,-0.9282,-0.9277,-0.9265,-0.9262,-0.9253,-0.9245,-0.9231,-0.9221,-0.9211,-0.9208,-0.9208,-0.9206,-0.9208,-0.9207,-0.9207,-0.9206,-0.9209,-0.9209,-0.9209,-0.9209,0,-0.9337,-0.9332,-0.9325,-0.9316,-0.931,-0.9303,-0.9295,-0.9291,-0.9279,-0.9273,-0.9264,-0.9258,-0.9245,-0.9236,-0.9225,-0.9218,-0.9211,-0.921,-0.9209,-0.9211,-0.9215,-0.9212,-0.9209,-0.921,-0.921,-0.921,-0.921,-0.921,-0.9343,-0.9339,-0.9329,-0.9321,-0.9314,-0.9306,-0.9301,-0.9293,-0.9285,-0.9274,-0.9269,-0.9259,-0.9249,-0.9233,-0.9226,-0.9218,-0.9216,-0.9215,-0.9214,-0.9214,-0.9215,-0.9216,-0.9216,-0.9216,-0.9216,-0.9216,-0.9216,0,-0.9348,-0.9341,-0.9334,-0.9322,-0.9316,-0.931,-0.9301,-0.9295,-0.9288,-0.9278,-0.927,-0.9259,-0.9249,-0.9238,-0.9227,-0.9223,-0.922,-0.9221,-0.9221,-0.9219,-0.9217,-0.9219,-0.9223,-0.9223,-0.9223,-0.9223,-0.9223,-0.9223,-0.935,-0.9343,-0.9337,-0.9326,-0.9319,-0.931,-0.9305,-0.9297,-0.929,-0.9278,-0.927,-0.9262,-0.9252,-0.924,-0.9231,-0.9227,-0.9223,-0.9225,-0.9221,-0.922,-0.9219,-0.9219,-0.922,-0.9225,-0.9225,-0.9223,-0.9223,-0.9223]}]]